CW8919 Weather Reports


time (UTC)temp
C
wind
direction
speed
KPH
gust
KPH
rain 1hr
cm
rain 24hr
cm
rain mn
cm
humidity
%
barometer
mb
20181023092926 20 50 1.6 17.7 0.00 0.00 0.00 71 1023.5
20181023091430 19 33 1.6 6.4 0.00 0.00 0.00 74 1023.4
20181023085942 19 31 3.2 9.7 0.00 0.00 0.00 75 1023.5
20181023084423 18 20 1.6 12.9 0.00 0.00 0.00 78 1023.4
20181023082929 18 2 0.0 16.1 0.00 0.00 0.00 77 1023.2
20181023081429 18 352 6.4 12.9 0.00 0.00 0.00 80 1022.9
20181023075937 18 352 9.7 16.1 0.00 0.00 0.00 81 1022.7
20181023074437 18 352 1.6 8.0 0.00 0.00 0.00 82 1022.2
20181023072937 18 352 0.0 9.7 0.00 0.00 0.00 82 1022.0
20181023071440 18 352 0.0 8.0 0.00 0.00 0.00 81 1022.0
20181023065934 18 352 1.6 9.7 0.00 0.00 0.00 81 1021.9
20181023064435 18 351 1.6 8.0 0.00 0.00 0.00 81 1021.7
20181023062938 18 352 3.2 9.7 0.00 0.00 0.00 82 1021.5
20181023061437 18 351 3.2 9.7 0.00 0.00 0.00 82 1021.3
20181023055927 18 351 6.4 12.9 0.00 0.00 0.00 83 1021.4
20181023054424 18 351 3.2 9.7 0.00 0.00 0.00 83 1021.3
20181023052924 17 351 0.0 3.2 0.00 0.00 0.00 82 1021.3
20181023051428 18 352 0.0 0.0 0.00 0.00 0.00 81 1021.2
20181023045924 18 352 0.0 0.0 0.00 0.00 0.00 80 1021.1
20181023044424 18 352 0.0 1.6 0.00 0.00 0.00 80 1021.0
20181023042928 18 352 0.0 9.7 0.00 0.00 0.00 80 1020.9
20181023041429 18 352 1.6 8.0 0.00 0.00 0.00 80 1020.8
20181023035934 18 352 1.6 8.0 0.00 0.00 0.00 80 1020.6
20181023034436 18 352 0.0 6.4 0.00 0.00 0.00 80 1020.5
20181023032938 18 352 0.0 8.0 0.00 0.00 0.00 79 1020.4
20181023031439 18 352 0.0 6.4 0.00 0.00 0.00 79 1020.5
20181023025929 18 352 0.0 6.4 0.00 0.00 0.00 80 1020.4
20181023024424 18 352 1.6 8.0 0.00 0.00 0.00 82 1020.4
20181023022928 17 352 0.0 4.8 0.00 0.00 0.00 83 1020.5
20181023021427 17 353 0.0 9.7 0.00 0.00 0.00 85 1020.5
20181023015933 16 353 1.6 6.4 0.00 0.00 0.00 83 1020.6
20181023014435 16 353 0.0 0.0 0.00 0.00 0.00 82 1020.8
20181023012935 17 353 0.0 0.0 0.00 0.00 0.00 82 1020.8
20181023011433 17 353 0.0 0.0 0.00 0.00 0.00 81 1020.8
20181023005932 17 353 0.0 0.0 0.00 0.00 0.00 80 1020.8
20181023004431 17 353 0.0 0.0 0.00 0.00 0.00 79 1020.9
20181023002934 17 353 0.0 0.0 0.00 0.00 0.00 79 1021.0
20181023001433 18 351 0.0 0.0 0.00 0.00 0.00 77 1021.0
20181022235938 18 351 0.0 0.0 0.00 0.00 0.00 77 1020.9
20181022234441 18 353 0.0 0.0 0.00 0.00 0.00 76 1021.0
20181022232941 18 352 0.0 0.0 0.00 0.00 0.00 75 1021.2
20181022231441 19 353 0.0 0.0 0.00 0.00 0.00 74 1021.2
20181022225930 19 352 1.6 6.4 0.00 0.00 0.00 74 1021.4
20181022224442 19 351 1.6 12.9 0.00 0.00 0.00 74 1021.4
20181022222937 19 352 1.6 8.0 0.00 0.00 0.00 74 1021.5
20181022221440 19 352 1.6 12.9 0.00 0.00 0.00 74 1021.5
20181022215926 19 351 1.6 16.1 0.00 0.00 0.00 74 1021.5
20181022214425 19 353 1.6 14.5 0.00 0.00 0.00 74 1021.6
20181022212929 20 345 4.8 14.5 0.00 0.00 0.00 73 1021.6
20181022211427 20 343 0.0 9.7 0.00 0.00 0.00 72 1021.4
20181022205939 20 343 3.2 14.5 0.00 0.00 0.00 72 1021.1
20181022204421 20 342 3.2 12.9 0.00 0.00 0.00 71 1021.0
20181022202923 20 343 4.8 16.1 0.00 0.00 0.00 71 1020.8
20181022201426 20 336 4.8 17.7 0.00 0.00 0.00 70 1020.8
20181022195931 21 333 4.8 16.1 0.00 0.00 0.00 69 1020.8
20181022194429 21 330 11.3 25.7 0.00 0.00 0.00 68 1020.7
20181022192950 21 324 12.9 25.7 0.00 0.00 0.00 68 1020.7
20181022191429 21 334 9.7 20.9 0.00 0.00 0.00 67 1020.7
20181022185923 21 343 6.4 19.3 0.00 0.00 0.00 66 1020.7
20181022184427 21 346 8.0 17.7 0.00 0.00 0.00 66 1020.7
20181022182927 21 342 3.2 14.5 0.00 0.00 0.00 65 1020.5
20181022181427 22 341 3.2 14.5 0.00 0.00 0.00 63 1020.3
20181022175933 22 342 8.0 17.7 0.00 0.00 0.00 62 1020.3
20181022174432 22 345 3.2 17.7 0.00 0.00 0.00 61 1020.3
20181022172934 22 346 9.7 24.1 0.00 0.00 0.00 60 1020.2
20181022171434 22 344 16.1 27.4 0.00 0.00 0.00 60 1020.0
20181022165928 23 342 6.4 27.4 0.00 0.00 0.00 60 1020.1
20181022164431 23 353 12.9 20.9 0.00 0.00 0.00 60 1020.1
20181022162931 23 323 11.3 20.9 0.00 0.00 0.00 59 1020.3
20181022161429 25 356 9.7 22.5 0.00 0.00 0.00 57 1020.3
20181022155939 25 75 3.2 17.7 0.00 0.00 0.00 57 1020.3
20181022154438 25 97 0.0 4.8 0.00 0.00 0.00 55 1020.3
20181022152939 25 102 0.0 6.4 0.00 0.00 0.00 55 1020.4
20181022151422 25 110 0.0 4.8 0.00 0.00 0.00 54 1020.5
20181022145937 25 110 0.0 1.6 0.00 0.00 0.00 55 1020.5
20181022144435 25 108 1.6 6.4 0.00 0.00 0.00 56 1020.5
20181022142939 25 108 0.0 1.6 0.00 0.00 0.00 58 1020.6
20181022141438 25 107 3.2 11.3 0.00 0.00 0.00 57 1020.8
20181022135926 25 107 0.0 4.8 0.00 0.00 0.00 55 1020.9
20181022134424 25 107 1.6 9.7 0.00 0.00 0.00 55 1021.0
20181022132923 25 105 3.2 14.5 0.00 0.00 0.00 55 1021.1
20181022131426 24 103 1.6 12.9 0.00 0.00 0.00 57 1021.2
20181022130127 24 103 1.6 12.9 0.00 0.00 0.00 59 1021.2
20181022124507 25 97 1.6 4.8 0.00 0.00 0.00 60 1021.3
20181022121422 23 97 1.6 8.0 0.00 0.00 0.00 62 1021.7
20181022115930 23 97 3.2 9.7 0.00 0.00 0.00 62 1021.7
20181022114429 23 96 3.2 14.5 0.00 0.00 0.00 63 1021.8
20181022112928 23 96 3.2 14.5 0.00 0.00 0.00 63 1021.9
20181022111431 23 94 6.4 20.9 0.00 0.00 0.00 64 1021.8
20181022105934 22 82 1.6 20.9 0.00 0.00 0.00 66 1022.0
20181022104434 22 98 9.7 19.3 0.00 0.00 0.00 67 1022.2
20181022102937 22 108 4.8 14.5 0.00 0.00 0.00 71 1021.9
20181022101435 21 108 1.6 12.9 0.00 0.00 0.00 74 1022.0
20181022095940 21 108 1.6 16.1 0.00 0.00 0.00 74 1021.9
20181022094424 20 109 6.4 17.7 0.00 0.00 0.00 77 1021.9